TimeAKDT,TemperatureF,Dew PointF,Humidity,Sea Level PressureIn,VisibilityMPH,Wind Direction,Wind SpeedMPH,Gust SpeedMPH,PrecipitationIn,Events,Conditions,WindDirDegrees,DateUTC
12:53 AM,27.0,15.1,61,30.25,10.0,NNW,13.8,-,N/A,,Clear,340,2012-10-24 08:53:00
1:53 AM,26.1,17.1,69,30.25,10.0,North,15.0,-,N/A,,Clear,360,2012-10-24 09:53:00
2:53 AM,25.0,17.1,72,30.25,10.0,North,12.7,-,N/A,,Clear,360,2012-10-24 10:53:00
3:53 AM,24.1,17.1,75,30.25,10.0,North,9.2,-,N/A,,Clear,350,2012-10-24 11:53:00
4:53 AM,24.1,16.0,71,30.25,10.0,North,8.1,-,N/A,,Clear,360,2012-10-24 12:53:00
5:53 AM,23.0,16.0,74,30.25,10.0,North,8.1,-,N/A,,Clear,360,2012-10-24 13:53:00
6:53 AM,23.0,16.0,74,30.25,10.0,North,11.5,-,N/A,,Clear,360,2012-10-24 14:53:00
7:53 AM,21.9,16.0,78,30.26,10.0,North,9.2,-,N/A,,Clear,350,2012-10-24 15:53:00
8:53 AM,21.0,12.9,71,30.26,10.0,North,9.2,-,N/A,,Clear,350,2012-10-24 16:53:00
9:53 AM,23.0,12.0,63,30.27,10.0,North,6.9,-,N/A,,Clear,350,2012-10-24 17:53:00
10:53 AM,26.1,14.0,60,30.27,10.0,North,5.8,-,N/A,,Clear,360,2012-10-24 18:53:00
11:53 AM,28.9,12.9,51,30.29,10.0,North,8.1,-,N/A,,Clear,350,2012-10-24 19:53:00
12:53 PM,33.1,14.0,46,30.30,10.0,NNW,5.8,-,N/A,,Clear,340,2012-10-24 20:53:00
1:53 PM,35.1,14.0,42,30.29,10.0,North,6.9,-,N/A,,Clear,350,2012-10-24 21:53:00
2:53 PM,37.9,15.1,39,30.30,10.0,Calm,Calm,-,N/A,,Clear,0,2012-10-24 22:53:00
3:53 PM,39.9,15.1,36,30.30,10.0,Calm,Calm,-,N/A,,Clear,0,2012-10-24 23:53:00
4:53 PM,34.0,16.0,48,30.31,10.0,Calm,Calm,-,N/A,,Clear,0,2012-10-25 00:53:00
5:53 PM,28.0,16.0,61,30.32,10.0,North,6.9,-,N/A,,Clear,350,2012-10-25 01:53:00
6:53 PM,26.1,16.0,66,30.34,10.0,Calm,Calm,-,N/A,,Clear,0,2012-10-25 02:53:00
7:53 PM,26.1,16.0,66,30.35,10.0,North,3.5,-,N/A,,Clear,350,2012-10-25 03:53:00
8:53 PM,28.0,15.1,58,30.36,10.0,NNW,6.9,-,N/A,,Clear,330,2012-10-25 04:53:00
9:53 PM,27.0,15.1,61,30.38,10.0,North,6.9,-,N/A,,Clear,350,2012-10-25 05:53:00
10:53 PM,26.1,15.1,63,30.39,10.0,NNW,8.1,-,N/A,,Clear,340,2012-10-25 06:53:00
11:53 PM,25.0,15.1,66,30.41,10.0,North,9.2,-,N/A,,Clear,350,2012-10-25 07:53:00